[[{"header":{"parameterUnit":"m.s-1","parameterCategory":1,"la1":30.2992,"la2":30.254,"lo1":-89.0895,"lo2":-89.0443,"dy":0.0025,"dx":0.0025,"nx":19,"ny":19,"refTime":"2026-04-08T03:00:00:Z","depth":0,"parameterNumber":2,"parameterNumberName":"U-component_of_WINDS"},"data":[0,0,0,-7.7762,-7.777,-7.8135,-7.8136,-7.863,-7.8635,0,0,0,0,0,0,0,0,0,0,0,-7.7672,-7.7676,-7.7761,-7.7771,-7.8135,-7.8136,-7.8629,-7.8635,0,0,0,0,0,0,0,0,0,0,0,-7.767,-7.7675,-7.768,-7.7773,-7.8134,-7.8136,-7.8628,-7.8343,0,0,0,0,0,0,0,0,0,0,-7.7985,-7.7919,-7.7674,-7.768,-7.7775,-7.8134,-7.8136,-7.8329,-7.8361,-7.8477,0,-7.8586,0,-7.8618,-7.867,-7.8671,0,0,0,-7.7758,-7.7893,-7.7974,-7.7681,-7.7778,-7.8134,-7.7967,-7.8347,-7.8383,-7.852,-7.8592,-7.861,-7.8626,-7.8673,-7.8676,-7.9388,-7.9392,0,0,-7.7738,-7.7747,-7.795,-7.7999,-7.7945,-7.7955,-7.7978,-7.8368,-7.8448,-7.8594,-7.8621,-7.8635,-7.8676,-7.868,-7.9385,-7.9389,0,0,0,-7.7689,-7.7734,-7.7805,-7.7979,-7.8043,-7.7966,-7.7993,-7.843,-7.8453,-7.8626,-7.864,-7.8679,-7.8686,-7.938,-7.9386,-7.9589,0,0,0,-7.7676,-7.7705,-7.7797,-7.7807,-7.8036,-7.8241,-7.8047,-7.8426,-7.847,-7.8638,-7.868,-7.8691,-7.9376,-7.9383,-7.9574,-7.9683,0,0,0,-7.7642,-7.7701,-7.776,-7.7807,-7.7963,-7.8235,-7.8279,-7.8435,-7.8479,-7.8672,-7.8692,-7.9373,-7.9382,-7.956,-7.9661,-7.9872,0,0,0,-7.7609,-7.7936,-7.7763,-7.8134,-7.796,-7.8357,-7.8277,-7.8572,-7.8762,-7.8682,-7.9376,-7.9386,-7.9556,-7.9648,-7.9858,-8.0051,-8.0132,0,0,-7.8027,-7.7987,-7.8204,-7.806,-7.849,-7.8301,-7.8761,-7.8926,-7.8937,-7.9237,-7.9254,-7.9579,-7.966,-7.9869,-8.0586,-8.065,0,0,0,-7.834,-7.8496,-7.8608,-7.8788,-7.8921,-7.9044,-7.9137,-7.9198,-7.9452,-7.9093,-7.9712,-7.976,-7.9882,-7.9974,-8.0029,-8.0133,-7.9429,-7.9428,-7.9427,-7.8945,-7.8939,-7.9297,-7.9335,-7.9511,-7.9603,-7.9744,-7.9842,-7.9786,-7.9932,-8.0021,-8.0457,-8.0565,-8.0606,-8.0714,-8.0123,-8.0124,-8.0125,-8.0125,-7.9556,-7.9775,-7.9691,-8.0008,-8.0,-8.0267,-8.0367,-8.0319,-8.0565,-8.039,-8.0497,-8.0306,-8.0677,-8.0771,-8.0141,-8.0138,-8.0136,-8.0135,-8.0133,-7.9951,-8.0055,-8.0122,-8.038,-8.0579,-8.0606,-8.0846,-8.083,-8.0817,-8.0924,-8.1015,-8.1012,-8.1005,-8.0968,-8.097,-8.0971,-8.0973,-8.0974,-8.0975,-8.0334,-8.0403,-8.0607,-8.0774,-8.0886,-8.1032,-8.1126,-8.1236,-8.1354,-8.1324,-8.1324,-8.1253,-8.0715,-8.0579,-8.0998,-8.0994,-8.0991,-8.0989,-8.0987,-8.0954,-8.0811,-8.1126,-8.1238,-8.1431,-8.1629,-8.1606,-8.1831,-8.1919,-8.2038,-8.1944,-8.1548,-8.1506,-8.1463,-8.135,-8.1944,-8.1944,-8.1944,-8.1945,-8.1287,-8.1263,-8.158,-8.176,-8.1935,-8.1945,-8.23,-8.2376,-8.2432,-8.2486,-8.2398,-8.2248,-8.2204,-8.2188,-8.2128,-8.2023,-8.2775,-8.2776,-8.2777,-8.1667,-8.1659,-8.1965,-8.2016,-8.2166,-8.2294,-8.2627,-8.2837,-8.2871,-8.281,-8.2528,-8.2493,-8.225,-8.2172,-8.2104,-8.2012,-8.1818,0,0]},{"header":{"parameterUnit":"m.s-1","parameterCategory":1,"la1":30.2992,"la2":30.254,"lo1":-89.0895,"lo2":-89.0443,"dy":0.0025,"dx":0.0025,"nx":19,"ny":19,"refTime":"2026-04-08T03:00:00:Z","depth":0,"parameterNumber":3,"parameterNumberName":"V-component_of_WINDS"},"data":[0,0,0,-0.1884,-0.1886,-0.2,-0.2,-0.213,-0.2131,0,0,0,0,0,0,0,0,0,0,0,-0.1841,-0.1841,-0.1884,-0.1886,-0.2,-0.2,-0.2129,-0.2131,0,0,0,0,0,0,0,0,0,0,0,-0.184,-0.1841,-0.1842,-0.1887,-0.2,-0.2,-0.2129,-0.2049,0,0,0,0,0,0,0,0,0,0,-0.1942,-0.1892,-0.1841,-0.1842,-0.1887,-0.2,-0.2001,-0.2046,-0.2054,-0.2071,0,-0.2084,0,-0.2109,-0.2138,-0.2139,0,0,0,-0.1894,-0.1885,-0.1924,-0.1842,-0.1888,-0.1999,-0.1951,-0.2051,-0.206,-0.2083,-0.2086,-0.2091,-0.2111,-0.2139,-0.214,-0.2213,-0.2213,0,0,-0.1887,-0.1856,-0.1918,-0.193,-0.1911,-0.1947,-0.1954,-0.2057,-0.2058,-0.2086,-0.2094,-0.2113,-0.214,-0.2141,-0.2213,-0.2213,0,0,0,-0.1865,-0.1851,-0.1889,-0.1924,-0.1946,-0.195,-0.1958,-0.2054,-0.2069,-0.2096,-0.2115,-0.214,-0.2142,-0.2213,-0.2213,-0.2182,0,0,0,-0.1861,-0.1838,-0.1885,-0.1867,-0.1944,-0.2001,-0.1953,-0.2061,-0.2074,-0.2114,-0.214,-0.2143,-0.2213,-0.2213,-0.2183,-0.2173,0,0,0,-0.1837,-0.1835,-0.1848,-0.1865,-0.1913,-0.2,-0.2021,-0.2065,-0.2085,-0.2139,-0.2143,-0.2213,-0.2213,-0.2184,-0.2175,-0.2183,0,0,0,-0.1801,-0.182,-0.1847,-0.1875,-0.1912,-0.198,-0.2021,-0.2074,-0.2116,-0.2141,-0.2213,-0.2213,-0.2184,-0.2176,-0.2184,-0.2185,-0.2182,0,0,-0.1807,-0.1819,-0.1838,-0.1866,-0.1921,-0.1965,-0.2017,-0.2086,-0.212,-0.218,-0.2182,-0.2183,-0.2175,-0.2183,-0.2178,-0.2176,0,0,0,-0.1829,-0.1842,-0.1864,-0.1902,-0.1955,-0.1999,-0.2063,-0.2088,-0.2141,-0.2144,-0.2189,-0.2185,-0.2192,-0.2194,-0.2192,-0.2199,-0.2212,-0.2212,-0.2212,-0.1792,-0.1834,-0.1868,-0.1923,-0.196,-0.2025,-0.2059,-0.2104,-0.2136,-0.2146,-0.2165,-0.2156,-0.2157,-0.2156,-0.2163,-0.2168,-0.2168,-0.2168,-0.2168,-0.1804,-0.1829,-0.1871,-0.1918,-0.1962,-0.2003,-0.2066,-0.2087,-0.2131,-0.2146,-0.2154,-0.2166,-0.2152,-0.2161,-0.2166,-0.2166,-0.2167,-0.2167,-0.2167,-0.1785,-0.1804,-0.1834,-0.1894,-0.1935,-0.199,-0.203,-0.2069,-0.2106,-0.2114,-0.2137,-0.2138,-0.2144,-0.2122,-0.2122,-0.2122,-0.2122,-0.2122,-0.2122,-0.1753,-0.1788,-0.1817,-0.1873,-0.1903,-0.1947,-0.2012,-0.2042,-0.2085,-0.211,-0.2111,-0.2142,-0.2143,-0.2142,-0.2122,-0.2122,-0.2122,-0.2122,-0.2122,-0.175,-0.1757,-0.1802,-0.1831,-0.19,-0.1938,-0.1987,-0.2045,-0.2075,-0.2094,-0.2123,-0.2117,-0.2133,-0.2135,-0.2135,-0.2114,-0.2114,-0.2114,-0.2114,-0.1734,-0.1746,-0.18,-0.1844,-0.1892,-0.194,-0.1989,-0.204,-0.2093,-0.2114,-0.2123,-0.2126,-0.2126,-0.2142,-0.2144,-0.2144,-0.2126,-0.2126,-0.2126,-0.1735,-0.1753,-0.1787,-0.1839,-0.1895,-0.1943,-0.1991,-0.204,-0.2101,-0.2127,-0.2132,-0.2132,-0.2137,-0.2137,-0.2163,-0.2165,-0.2167,0,0]}]]